| time (UTC) | temp F | wind direction | speed MPH | gust MPH | rain 1hr in | rain 24hr in | rain mn in | humidity % | barometer mb |
| 20260503030019 | 55 | 0 | 0.0 | 0.0 | 0.00 | 0.02 | 0.00 | 10 | 1014.6 |
| 20260503022025 | 55 | 0 | 0.0 | 0.0 | 0.00 | 0.02 | 0.00 | 10 | 1014.6 |
| 20260503015231 | 55 | 0 | 0.0 | 0.0 | 0.00 | 0.02 | 0.00 | 10 | 1015.0 |
| 20260503012019 | 55 | 0 | 0.0 | 0.0 | 0.00 | 0.02 | 0.00 | 10 | 1015.2 |
| 20260503011033 | 55 | 0 | 0.0 | 0.0 | 0.00 | 0.02 | 0.00 | 10 | 1015.3 |
| 20260503010025 | 55 | 0 | 0.0 | 0.0 | 0.00 | 0.02 | 0.00 | 99 | 1015.4 |
| 20260503005037 | 55 | 0 | 0.0 | 0.0 | 0.00 | 0.02 | 0.00 | 99 | 1015.3 |
| 20260503003022 | 56 | 0 | 0.0 | 0.0 | 0.00 | 0.02 | 0.00 | 99 | 1015.4 |
| 20260503002019 | 56 | 0 | 0.0 | 0.0 | 0.00 | 0.02 | 0.00 | 98 | 1015.5 |
| 20260503000039 | 57 | 0 | 0.0 | 0.0 | 0.00 | 0.02 | 0.00 | 98 | 1015.7 |
| 20260502235038 | 57 | 0 | 0.0 | 0.0 | 0.00 | 0.02 | 0.00 | 98 | 1015.8 |
| 20260502233040 | 58 | 0 | 0.0 | 0.0 | 0.00 | 0.02 | 0.00 | 98 | 1015.9 |
| 20260502232021 | 58 | 0 | 0.0 | 0.0 | 0.00 | 0.02 | 0.00 | 98 | 1016.0 |
| 20260502231020 | 58 | 0 | 0.0 | 0.0 | 0.00 | 0.02 | 0.00 | 98 | 1016.0 |
| 20260502225022 | 58 | 0 | 0.0 | 0.0 | 0.00 | 0.02 | 0.00 | 98 | 1016.2 |
| 20260502223021 | 58 | 0 | 0.0 | 0.0 | 0.00 | 0.02 | 0.00 | 98 | 1016.3 |
| 20260502222021 | 58 | 0 | 0.0 | 0.0 | 0.00 | 0.02 | 0.00 | 98 | 1016.3 |
| 20260502221023 | 58 | 0 | 0.0 | 0.0 | 0.00 | 0.02 | 0.00 | 98 | 1016.4 |
| 20260502215033 | 59 | 0 | 0.0 | 0.0 | 0.00 | 0.02 | 0.02 | 97 | 1016.3 |
| 20260502214021 | 59 | 0 | 0.0 | 0.0 | 0.00 | 0.02 | 0.02 | 97 | 1016.4 |
| 20260502213039 | 59 | 0 | 0.0 | 0.0 | 0.00 | 0.02 | 0.02 | 96 | 1016.4 |
| 20260502212034 | 59 | 0 | 0.0 | 0.0 | 0.00 | 0.02 | 0.02 | 95 | 1016.4 |
| 20260502211036 | 59 | 0 | 0.0 | 0.0 | 0.00 | 0.02 | 0.02 | 94 | 1016.5 |
| 20260502210021 | 59 | 0 | 0.0 | 0.0 | 0.00 | 0.02 | 0.02 | 93 | 1016.5 |
| 20260502205039 | 59 | 0 | 0.0 | 0.0 | 0.00 | 0.02 | 0.02 | 95 | 1016.4 |
| 20260502202038 | 60 | 0 | 0.0 | 0.0 | 0.02 | 0.02 | 0.02 | 95 | 1016.4 |
| 20260502200036 | 61 | 0 | 0.0 | 0.0 | 0.02 | 0.02 | 0.02 | 92 | 1016.3 |
| 20260502195021 | 62 | 0 | 0.0 | 0.0 | 0.02 | 0.02 | 0.02 | 90 | 1016.4 |
| 20260502194038 | 63 | 0 | 0.0 | 0.0 | 0.02 | 0.02 | 0.02 | 84 | 1016.4 |
| 20260502193021 | 65 | 0 | 0.0 | 0.0 | 0.02 | 0.02 | 0.02 | 77 | 1016.4 |
| 20260502191034 | 67 | 0 | 0.0 | 0.0 | 0.00 | 0.00 | 0.00 | 69 | 1016.4 |
| 20260502190039 | 67 | 0 | 0.0 | 0.0 | 0.00 | 0.00 | 0.00 | 68 | 1016.4 |
| 20260502185021 | 68 | 0 | 0.0 | 0.0 | 0.00 | 0.00 | 0.00 | 69 | 1016.6 |
| 20260502181037 | 70 | 0 | 0.0 | 0.0 | 0.00 | 0.00 | 0.00 | 74 | 1016.2 |
| 20260502162021 | 75 | 0 | 0.0 | 0.0 | 0.00 | 0.00 | 0.00 | 54 | 1017.0 |
| 20260502161037 | 75 | 0 | 0.0 | 0.0 | 0.00 | 0.00 | 0.00 | 54 | 1017.1 |
| 20260502151026 | 75 | 0 | 0.0 | 0.0 | 0.00 | 0.00 | 0.00 | 53 | 1017.9 |
| 20260502123039 | 70 | 0 | 0.0 | 0.0 | 0.00 | 0.00 | 0.00 | 61 | 1020.3 |
| 20260502122038 | 70 | 0 | 0.0 | 0.0 | 0.00 | 0.00 | 0.00 | 61 | 1020.4 |
| 20260502114036 | 71 | 0 | 0.0 | 0.0 | 0.00 | 0.00 | 0.00 | 61 | 1020.8 |
| 20260502112020 | 72 | 0 | 0.0 | 0.0 | 0.00 | 0.00 | 0.00 | 62 | 1020.9 |
| 20260502111036 | 71 | 0 | 0.0 | 0.0 | 0.00 | 0.00 | 0.00 | 64 | 1020.9 |
| 20260502110020 | 70 | 0 | 0.0 | 0.0 | 0.00 | 0.00 | 0.00 | 63 | 1021.0 |
| 20260502104021 | 70 | 0 | 0.0 | 0.0 | 0.00 | 0.00 | 0.00 | 63 | 1021.2 |
| 20260502103020 | 72 | 0 | 0.0 | 0.0 | 0.00 | 0.00 | 0.00 | 63 | 1021.2 |
| 20260502102036 | 71 | 0 | 0.0 | 0.0 | 0.00 | 0.00 | 0.00 | 65 | 1021.2 |
| 20260502091039 | 68 | 0 | 0.0 | 0.0 | 0.00 | 0.00 | 0.00 | 66 | 1021.8 |
| 20260502071020 | 61 | 0 | 0.0 | 0.0 | 0.00 | 0.00 | 0.00 | 74 | 1022.5 |
| 20260502065038 | 59 | 0 | 0.0 | 0.0 | 0.00 | 0.00 | 0.00 | 78 | 1022.6 |
| 20260502062022 | 57 | 0 | 0.0 | 0.0 | 0.00 | 0.00 | 0.00 | 81 | 1022.6 |
| 20260502061034 | 56 | 0 | 0.0 | 0.0 | 0.00 | 0.00 | 0.00 | 81 | 1022.7 |
| 20260502055031 | 56 | 0 | 0.0 | 0.0 | 0.00 | 0.00 | 0.00 | 81 | 1022.6 |
| 20260502052019 | 54 | 0 | 0.0 | 0.0 | 0.00 | 0.00 | 0.00 | 89 | 1022.5 |
| 20260502050036 | 53 | 0 | 0.0 | 0.0 | 0.00 | 0.00 | 0.00 | 88 | 1022.3 |
| 20260502045021 | 53 | 0 | 0.0 | 0.0 | 0.00 | 0.00 | 0.00 | 87 | 1022.1 |
| 20260502043037 | 54 | 0 | 0.0 | 0.0 | 0.00 | 0.00 | 0.00 | 80 | 1022.2 |
| 20260502040026 | 53 | 0 | 0.0 | 0.0 | 0.00 | 0.00 | 0.00 | 79 | 1022.3 |